Skip Page Navigation
NASA JPL Caltech
NASA Logo - Jet Propulsion Laboratory + View the NASA Portal
+ Center for Near-Earth Object Studies
JPL Home Earth Solar System Stars & Galaxies Technology
JPL Solar System Dynamics
BODIES ORBITS EPHEMERIDES TOOLS PHYSICAL DATA DISCOVERY FAQ SITE MAP
IMPORTANT: The SSD Announcement email list is now available. Major changes are coming in the near future, including possible hostname and/or URL changes. To be notified of such changes, subscribe to this email list.

Please visit this page for more details.


JPL Small-Body Database Browser
Search: [ help ]  
56726 (2000 NA13)
Classification: Main-belt Asteroid          SPK-ID: 2056726
Ephemeris | Orbit Diagram | Orbital Elements | Mission Design | Physical Parameters | Discovery Circumstances | Close-Approach Data ]

[ show orbit diagram ]
Orbital Elements at Epoch 2458600.5 (2019-Apr-27.0) TDB
Reference: JPL 22 (heliocentric ecliptic J2000)
 Element Value Uncertainty (1-sigma)   Units 
e .08658755303197535 3.7614e-08  
a 3.084648054471812 2.132e-08 au
q 2.817555927470255 1.1623e-07 au
i 8.449649717074308 4.4547e-06 deg
node 288.022204552567 3.2716e-05 deg
peri 123.2305131518636 4.4494e-05 deg
M 83.03358141864648 2.973e-05 deg
tp 2458144.086873287117
(2018-Jan-25.58687329)
0.00016249 TDB
period 1978.822577677469
5.42
2.0516e-05
5.617e-08
d
yr
n .1819263657394336 1.8861e-09 deg/d
Q 3.35174018147337 2.3166e-08 au
  Orbit Determination Parameters
   # obs. used (total)      1063  
   data-arc span      7672 days (21.00 yr)  
   first obs. used      1998-04-01  
   last obs. used      2019-04-03  
   planetary ephem.      DE431  
   SB-pert. ephem.      SB431-N16  
   condition code      0  
   norm. resid. RMS      .52879  
   source      ORB  
   producer      Otto Matic  
   solution date      2019-Jul-13 03:26:34  

Additional Information
 Earth MOID = 1.83971 au 
 Jupiter MOID = 1.95651 au 
 T_jup = 3.204 
[ show covariance matrix ]

Ephemeris | Orbit Diagram | Orbital Elements | Mission Design | Physical Parameters | Discovery Circumstances | Close-Approach Data ]

Physical Parameter Table
Parameter Symbol Value Units Sigma Reference Notes
absolute magnitude H 14.1   n/a MPO468460  

56726 (2000 NA13)          Discovered 2000-Jul-05 by LONEOS at Anderson Mesa
Reference: 20030318/Numbers.arcLast Updated: 2004-04-19

[ show close-approach data ]
Ephemeris | Orbit Diagram | Orbital Elements | Mission Design | Physical Parameters | Discovery Circumstances | Close-Approach Data ]
ABOUT SSD CREDITS/AWARDS PRIVACY/COPYRIGHT GLOSSARY LINKS
FirstGov 2020-Jan-20 12:28 UT
(server date/time)  
NASA Home Page
Site Manager:   Ryan S. Park
Webmaster  Alan B. Chamberlin